Home   Weather   Preston   Past weeks
Flag for United Kingdom

Past Weather in Preston, England, United Kingdom — June 2018

Now
50 °F

Light rain. Broken clouds.


Feels Like: 43 °F
Forecast: 45 / 49 °F
Wind: 26 mph from Southeast

Location: Blackpool Airport

Current Time: Dec 18, 2018 at 1:17:15 pm

Latest Report: Dec 18, 2018 at 12:20 pm


Visibility: N/A

Pressure: 29.50 "Hg

Humidity: 88%

Dew Point: 46 °F

Location of PrestonLocation

June 2018 Weather in Preston — Graph

°F

High & Low Weather Summary for June 2018

 TemperatureHumidityPressure
High86 °F (Jun 27, 2:50 pm)100% (Jun 2, 6:20 am)30.48 "Hg (Jun 2, 6:20 am)
Low50 °F (Jun 6, 6:20 am)22% (Jun 27, 3:20 pm)29.56 "Hg (Jun 14, 8:20 am)
Average64 °F70%30.10 "Hg
* Reported Jun 1 6:20 am — Jun 30 8:50 pm, Preston. Weather by CustomWeather, © 2018

Note: Actual official high and low records may vary slightly from our data, if they occured in-between our weather recording intervals... More about our weather records

Advertising

Preston Weather History for June 1, 2018

Scroll right to see more
 ConditionsComfort  
Time TempWeatherWind HumidityBarometerVisibility
6:20 am
Fri, Jun 1
61 °FClear.6 mph94%30.04 "Hg4 mi
6:50 am61 °FClear.6 mph94%30.04 "Hg4 mi
7:20 am63 °FClear.7 mph88%30.04 "Hg4 mi
7:50 am63 °FClear.8 mph88%30.04 "Hg5 mi
8:20 am64 °FClear.8 mph88%30.04 "Hg6 mi
8:50 am68 °FPassing clouds.8 mph83%30.04 "HgN/A
9:20 am70 °FPassing clouds.7 mph78%30.04 "HgN/A
10:20 am72 °FScattered clouds.7 mph78%30.04 "HgN/A
11:20 am72 °FScattered clouds.8 mph78%30.04 "HgN/A
11:50 am68 °FScattered clouds.8 mph83%30.04 "HgN/A
12:20 pm68 °FScattered clouds.9 mph83%30.04 "Hg6 mi
12:50 pm70 °FScattered clouds.9 mph78%30.04 "Hg6 mi
1:20 pm70 °FScattered clouds.9 mph73%30.04 "Hg6 mi
1:50 pm70 °FScattered clouds.8 mph73%30.04 "Hg6 mi
2:20 pm70 °FPassing clouds.10 mph73%30.04 "Hg6 mi
2:50 pm72 °FPassing clouds.9 mph69%30.04 "Hg6 mi
3:20 pm72 °FPassing clouds.8 mph73%30.01 "Hg6 mi
3:50 pm72 °FPassing clouds.9 mph69%30.01 "Hg6 mi
4:20 pm73 °FPassing clouds.9 mph69%30.01 "Hg6 mi
4:50 pm72 °FPassing clouds.9 mph69%30.01 "Hg6 mi
5:20 pm72 °FPassing clouds.9 mph73%30.01 "Hg6 mi
5:50 pm72 °FPassing clouds.12 mph69%30.01 "HgN/A
6:20 pm72 °FPassing clouds.9 mph69%30.01 "HgN/A
6:50 pm72 °FScattered clouds.9 mph69%30.01 "HgN/A
7:50 pm70 °FScattered showers. Scattered clouds.6 mph73%30.04 "Hg6 mi
8:20 pm68 °FSprinkles. Partly sunny.8 mph78%30.04 "Hg5 mi
8:50 pm64 °FSprinkles. Broken clouds.8 mph88%30.04 "Hg4 mi
Weather by CustomWeather, © 2018

See weather overview